Date,TemperatureHighF,TemperatureAvgF,TemperatureLowF,DewpointHighF,DewpointAvgF,DewpointLowF,HumidityHigh,HumidityAvg,HumidityLow,PressureMaxIn,PressureMinIn,WindSpeedMaxMPH,WindSpeedAvgMPH,GustSpeedMaxMPH,PrecipitationSumIn
2013-1-1,12,5,-2,5,-1,-7,79,78,73,30.23,30.12,3,0,9,0.00
2013-1-2,24,18,5,16,11,0,78,73,57,30.13,30.03,4,0,8,0.00
2013-1-3,25,21,13,19,15,6,77,76,75,30.20,30.03,6,2,13,0.00
2013-1-4,28,18,9,20,12,3,78,76,72,30.17,30.06,5,2,13,0.00
2013-1-5,35,25,10,27,18,4,76,74,72,30.20,29.85,4,1,12,0.00
2013-1-6,35,26,15,27,18,9,76,74,72,30.27,29.84,8,3,16,0.00
2013-1-7,37,26,13,26,18,7,77,73,63,30.26,30.01,7,2,18,0.00
2013-1-8,38,32,22,30,24,15,75,73,71,30.09,29.91,5,0,13,0.11
2013-1-9,39,34,21,31,26,14,75,72,65,30.43,29.90,9,3,22,0.17
2013-1-10,39,31,19,31,23,12,76,73,71,30.48,29.86,6,1,15,0.32
2013-1-11,46,40,36,40,34,29,79,78,76,29.86,29.58,3,0,11,0.27
2013-1-12,50,37,24,39,28,17,75,71,67,29.98,29.59,10,4,21,0.01
2013-1-13,24,18,13,17,11,6,76,75,73,30.18,29.89,8,4,19,0.00
2013-1-14,23,15,7,13,8,1,77,73,62,30.42,30.17,7,1,16,0.00
2013-1-15,29,19,9,17,11,3,81,71,59,30.40,30.07,5,1,11,0.00
2013-1-16,33,26,17,25,18,10,75,73,67,30.07,29.74,8,2,20,0.00
2013-1-17,28,19,13,20,10,4,75,65,51,30.37,30.03,7,2,14,0.00
2013-1-18,41,29,12,32,21,6,76,73,70,30.39,29.80,8,3,22,0.02
2013-1-19,43,37,17,34,27,7,71,69,48,29.91,29.63,15,4,39,0.01
2013-1-20,16,11,6,7,2,-1,73,67,56,30.29,29.91,16,5,30,0.00
2013-1-21,10,3,-3,3,-4,-10,77,70,61,30.25,30.09,10,4,23,0.00
2013-1-22,7,0,-7,-3,-8,-13,77,71,63,30.33,30.25,8,3,16,0.00
2013-1-23,18,11,0,11,4,-5,77,74,68,30.37,30.05,7,2,16,0.00
2013-1-24,18,8,0,10,1,-6,82,72,65,30.63,30.32,3,0,8,0.00
2013-1-25,25,20,15,18,12,8,75,72,61,30.32,29.91,7,2,15,0.00
2013-1-26,23,16,6,15,9,0,77,73,63,30.37,30.16,5,1,10,0.00
2013-1-27,33,28,23,26,20,15,76,73,70,30.32,29.86,4,1,13,0.00
2013-1-28,40,36,33,30,28,25,78,74,68,29.94,29.76,6,1,12,0.26
2013-1-29,56,44,35,50,37,28,80,77,70,29.78,29.47,7,1,14,1.20
2013-1-30,36,28,17,30,22,10,78,75,72,29.56,29.29,2,0,5,0.56
2013-1-31,17,9,2,10,3,-4,77,76,72,30.10,29.56,0,0,0,0.01
2013-2-1,6,1,-4,0,-5,-9,79,76,70,30.28,30.10,0,0,0,0.00
2013-2-2,10,7,0,4,1,-5,78,76,71,30.11,30.00,0,0,4,0.00
2013-2-3,18,12,2,11,5,-4,77,75,69,30.01,29.91,9,2,16,0.00
2013-2-4,17,12,5,10,6,-1,77,74,67,30.00,29.91,1,0,6,0.00
2013-2-5,28,18,3,20,11,-3,77,74,72,30.07,29.74,4,1,11,0.00
2013-2-6,33,20,-1,24,12,-6,77,74,70,30.21,30.05,3,0,10,0.15
2013-2-7,34,31,21,27,24,14,76,74,70,30.07,29.90,3,0,9,0.01
2013-2-8,24,19,5,17,12,-1,76,73,71,30.37,30.05,4,0,12,0.01
2013-2-9,29,22,4,21,14,-2,76,73,70,30.38,30.06,2,0,11,0.01
2013-2-10,42,34,22,36,27,15,78,74,68,30.06,29.39,9,2,19,0.17
2013-2-11,40,32,27,30,23,20,74,71,68,29.96,29.39,11,7,27,0.19
2013-2-12,28,24,21,21,17,13,75,74,72,30.06,29.85,7,2,16,0.01
2013-2-13,39,29,19,30,22,12,75,72,70,29.85,29.67,4,0,8,0.05
2013-2-14,36,33,29,28,25,21,76,71,69,29.96,29.55,9,3,18,0.09
2013-2-15,29,20,13,21,12,5,76,69,55,30.18,29.96,7,3,13,0.01
2013-2-16,18,12,4,6,3,-2,77,69,55,30.17,30.11,6,1,15,0.00
2013-2-17,25,14,0,16,5,-6,77,67,52,30.18,29.93,3,0,10,0.00
2013-2-18,46,35,25,37,27,16,76,72,68,29.93,29.43,6,1,16,0.17
2013-2-19,27,14,8,20,7,1,77,74,72,30.14,29.50,9,5,19,0.17
2013-2-20,21,13,5,13,6,-1,77,74,68,30.36,30.14,7,2,12,0.00
2013-2-21,27,18,8,19,11,2,76,74,71,30.41,30.06,7,2,18,0.00
2013-2-22,32,28,24,24,20,17,74,72,70,30.06,29.76,6,2,19,0.12
2013-2-23,31,26,21,23,19,14,76,72,71,29.91,29.81,5,2,14,0.04
2013-2-24,36,25,16,27,18,9,75,73,68,30.12,29.91,1,0,7,0.06
2013-2-25,40,29,13,30,21,6,74,70,64,30.16,30.03,1,0,6,0.01
2013-2-26,33,32,28,25,24,20,75,72,70,30.03,29.62,9,4,18,0.01
2013-2-27,33,31,28,25,23,21,75,73,71,29.75,29.59,4,1,10,0.18
2013-2-28,35,31,24,27,22,-100,76,72,69,30.12,29.75,5,1,15,0.07
2013-3-1,26,23,18,19,16,11,76,74,73,30.24,30.11,4,1,12,0.01
2013-3-2,25,18,8,19,11,2,77,74,68,30.23,30.14,3,0,10,0.00
2013-3-3,27,14,-1,16,5,-6,78,69,53,30.15,30.08,2,0,6,0.00
2013-3-4,33,22,5,25,15,-1,77,74,71,30.11,30.02,5,1,14,0.00
2013-3-5,31,28,25,24,21,17,74,72,70,30.05,29.87,4,1,11,0.07
2013-3-6,33,29,26,25,21,18,73,71,70,30.29,30.05,5,1,11,0.17
2013-3-7,33,25,13,23,17,6,74,71,62,30.42,30.29,2,0,7,0.03
2013-3-8,41,29,15,30,21,8,74,70,63,30.45,30.27,3,0,10,0.01
2013-3-9,43,36,29,34,27,21,75,71,68,30.27,29.80,3,1,11,0.33
2013-3-10,41,38,36,34,31,29,77,76,73,29.81,29.61,5,1,14,1.15
2013-3-11,36,33,30,29,27,22,78,76,71,29.72,29.53,9,2,19,0.34
2013-3-12,33,30,27,25,22,19,75,72,68,29.98,29.72,9,4,19,0.04
2013-3-13,33,25,19,19,14,12,76,64,45,30.29,29.98,9,4,18,0.01
2013-3-14,37,27,16,27,18,9,75,69,58,30.29,30.05,1,0,7,0.00
2013-3-15,36,31,26,28,23,19,76,72,69,30.05,29.80,6,1,11,0.05
2013-3-16,31,27,21,23,19,13,73,72,70,30.12,29.80,5,1,13,0.01
2013-3-17,30,24,17,21,16,10,75,72,66,30.25,30.01,6,2,13,0.01
2013-3-18,34,29,18,26,21,11,75,72,70,30.01,29.55,9,3,27,0.20
2013-3-19,30,20,13,16,12,7,77,69,54,30.01,29.69,13,6,28,0.01
2013-3-20,20,15,10,11,6,1,70,65,58,30.05,29.99,11,5,23,0.00
2013-3-21,28,18,9,16,10,3,77,68,56,30.04,29.99,6,2,13,0.00
2013-3-22,34,23,11,21,14,5,76,68,54,30.06,30.01,1,0,6,0.00
2013-3-23,38,27,17,24,18,10,74,67,55,30.14,30.06,1,0,5,0.00
2013-3-24,33,30,28,24,22,20,74,71,69,30.06,29.77,5,1,11,0.09
2013-3-25,36,30,24,28,23,16,74,73,71,30.08,29.80,5,2,14,0.01
2013-3-26,42,35,30,31,26,23,74,71,60,30.24,30.08,5,1,12,0.00
2013-3-27,43,36,31,29,26,23,74,65,47,30.31,30.23,4,0,10,0.00
2013-3-28,46,36,27,28,23,20,74,61,40,30.34,30.28,5,0,8,0.00
2013-3-29,50,37,24,32,24,16,76,61,41,30.33,30.23,3,0,7,0.00
2013-3-30,55,43,31,41,31,-100,73,67,57,30.23,29.81,4,0,12,0.01
2013-3-31,48,40,34,38,31,22,73,70,59,29.88,29.70,10,4,28,0.01
2013-4-1,36,31,26,22,17,-100,73,58,44,30.17,29.88,8,4,21,0.01
2013-4-2,41,32,25,21,17,-100,71,55,38,30.30,30.16,8,3,19,0.00
2013-4-3,46,34,21,24,19,14,74,55,30,30.45,0.30,2,0,9,0.00
2013-4-4,57,43,29,39,29,20,71,59,45,30.28,29.94,6,2,19,0.00
2013-4-5,49,38,29,31,27,20,73,63,42,30.24,30.03,6,1,15,0.00
2013-4-6,62,47,35,47,35,22,72,64,51,30.15,29.54,6,2,15,0.06
2013-4-7,53,44,37,41,34,28,71,67,58,29.95,29.54,10,4,25,0.04
2013-4-8,48,42,37,38,34,28,75,71,67,29.99,29.61,5,1,12,0.48
2013-4-9,42,39,37,35,32,29,77,75,71,30.02,29.88,5,2,14,1.07
2013-4-10,38,36,33,31,28,26,76,74,71,30.06,29.89,7,4,19,1.12
2013-4-11,38,37,35,31,29,28,75,74,71,29.93,29.57,13,6,30,0.35
2013-4-12,41,37,35,32,29,26,77,73,69,29.78,29.51,6,2,16,0.07
2013-4-13,39,36,32,30,27,23,74,71,67,29.98,29.77,8,4,24,0.01
2013-4-14,53,38,31,40,29,22,76,70,67,30.00,29.58,10,4,25,0.06
2013-4-15,60,51,42,47,41,32,77,68,54,29.95,29.57,9,2,23,0.66
2013-4-16,53,43,34,39,33,25,72,67,55,30.29,29.94,7,1,16,0.02
2013-4-17,43,41,38,36,32,29,75,71,68,30.32,29.88,9,2,21,0.67
2013-4-18,58,47,41,51,40,31,78,75,69,29.88,29.32,9,2,27,0.64
2013-4-19,40,36,32,31,28,23,73,71,66,29.89,29.35,12,7,30,0.07
2013-4-20,46,36,27,26,21,18,74,58,35,30.40,29.88,8,2,16,0.01
2013-4-21,51,40,31,34,28,-100,73,62,49,30.50,30.27,7,2,16,0.00
2013-4-22,69,54,42,48,39,33,72,58,40,30.28,30.01,5,1,12,0.00
2013-4-23,54,45,38,44,35,29,71,68,60,30.02,29.88,7,1,18,0.19
2013-4-24,54,43,33,33,28,25,73,57,36,30.02,29.96,9,2,19,0.01
2013-4-25,52,45,38,35,32,29,71,62,46,30.29,29.96,9,3,22,0.06
2013-4-26,69,54,37,50,40,29,76,60,48,30.29,30.14,8,2,24,0.01
2013-4-27,68,58,47,52,46,37,69,63,49,30.24,30.01,4,0,10,0.00
2013-4-28,73,58,44,50,44,34,70,59,40,30.02,29.80,3,0,7,0.00
2013-4-29,69,61,50,55,49,41,73,66,60,29.86,29.73,4,0,10,0.03
2013-4-30,87,73,60,63,55,49,69,55,33,29.88,29.70,9,2,21,0.01
2013-5-1,83,70,54,62,55,44,69,61,44,30.22,29.88,3,1,8,0.00
2013-5-2,56,47,39,45,38,30,74,70,66,30.29,30.19,5,1,9,0.83
2013-5-3,50,42,36,41,35,29,75,74,71,30.23,30.00,4,1,9,1.04
2013-5-4,70,58,46,55,46,38,73,65,52,30.06,29.98,7,1,15,0.03
2013-5-5,74,60,44,55,46,35,72,60,41,30.08,30.01,5,0,13,0.01
2013-5-6,76,62,45,54,44,35,71,54,30,30.09,29.99,2,0,8,0.00
2013-5-7,78,65,49,51,46,39,70,52,31,30.08,29.99,3,0,10,0.00
2013-5-8,82,67,47,56,48,37,70,52,26,30.06,29.96,3,0,8,0.00
2013-5-9,69,58,46,57,47,38,75,69,59,29.98,29.89,6,1,12,0.79
2013-5-10,50,44,42,40,35,-100,76,73,68,29.99,29.87,4,1,11,1.51
2013-5-11,52,46,41,43,35,-100,77,67,43,30.03,29.78,11,3,22,0.03
2013-5-12,54,45,36,34,30,27,70,56,36,30.11,30.03,8,3,18,0.01
2013-5-13,63,49,31,40,33,23,75,56,33,30.18,29.93,4,1,12,0.00
2013-5-14,85,66,48,61,50,36,66,58,42,29.94,29.59,4,1,13,0.00
2013-5-17,57,57,56,47,46,45,68,67,67,30.06,30.05,2,1,9,0.63
2013-5-18,79,65,53,64,53,42,69,65,61,30.07,29.95,4,1,11,0.04
2013-5-19,87,72,59,68,59,49,70,63,51,29.96,29.65,6,1,21,0.00
2013-5-20,85,76,65,65,60,53,67,59,45,29.78,29.65,7,1,19,0.00
2013-5-21,80,71,60,65,58,49,67,63,51,29.70,29.62,7,1,23,0.02
2013-5-22,66,61,55,58,52,47,76,72,65,29.78,29.64,3,0,7,1.97
2013-5-23,58,52,43,48,42,33,76,70,55,30.31,29.78,5,1,15,1.05
2013-5-24,63,50,36,46,38,28,74,64,48,30.46,30.31,4,0,9,0.01
2013-5-25,62,54,45,44,40,36,72,60,48,30.40,30.30,5,1,13,0.00
2013-5-26,66,55,40,49,42,31,72,63,48,30.32,30.18,5,1,13,0.01
2013-5-27,55,53,50,45,44,42,75,71,65,30.19,29.91,7,3,19,0.03
2013-5-28,75,62,51,62,52,43,78,72,64,29.91,29.71,3,0,10,0.46
2013-5-29,85,72,61,70,61,53,78,68,57,29.91,29.78,4,0,15,0.01
2013-5-30,87,75,64,71,62,54,72,65,58,29.90,29.73,4,1,14,0.30
2013-5-31,77,69,63,64,58,54,75,68,63,29.81,29.70,4,0,11,0.27
2013-6-1,79,71,63,66,59,-100,76,69,61,29.70,29.62,7,1,15,0.06
2013-6-2,63,56,48,52,45,38,71,67,57,30.02,29.68,6,2,18,0.03
2013-6-3,71,58,42,50,44,35,77,61,42,30.11,30.02,4,0,9,0.00
2013-6-4,72,61,52,56,48,42,70,63,49,30.19,30.09,6,1,14,0.05
2013-6-5,65,57,52,54,46,42,70,68,66,30.15,29.98,7,1,13,0.11
2013-6-6,60,56,52,49,46,43,75,70,66,29.98,29.93,2,0,9,0.31
2013-6-7,72,61,53,56,48,43,70,63,45,30.00,29.92,2,0,10,0.01
2013-6-8,73,61,48,55,48,40,75,63,44,30.02,29.93,2,0,9,0.00
2013-6-9,79,68,50,64,56,39,70,66,57,30.03,29.83,8,2,20,0.00
2013-6-10,81,71,61,68,59,52,71,66,60,29.86,29.78,2,0,7,0.00
2013-6-11,86,74,60,69,61,52,76,65,55,29.93,29.80,3,0,10,0.00
2013-6-12,78,70,62,66,59,54,75,69,64,29.91,29.64,9,1,24,1.75
2013-6-13,77,67,57,64,56,47,75,67,60,30.08,29.77,3,0,11,1.71
2013-6-14,79,66,52,63,54,44,74,65,54,30.16,30.01,3,0,8,0.01
2013-6-15,82,69,56,69,58,46,76,68,64,30.09,29.82,2,0,13,0.56
2013-6-16,85,75,65,67,60,54,76,61,38,29.92,29.84,4,1,13,0.74
2013-6-17,87,73,61,66,58,48,69,60,43,29.99,29.86,6,1,15,0.01
2013-6-18,72,62,54,59,50,44,70,64,50,30.11,29.98,4,0,11,0.00
2013-6-19,80,64,47,56,48,38,71,59,40,30.16,30.07,1,0,7,0.00
2013-6-20,88,66,56,66,52,45,69,62,42,30.16,30.09,0,0,7,0.00
2013-6-22,83,76,68,71,64,59,73,67,64,30.10,29.91,2,0,9,0.54
2013-6-23,89,76,64,75,65,56,76,69,64,30.02,29.87,2,0,10,0.30
2013-6-24,82,74,68,70,63,59,75,69,64,30.02,29.84,5,0,12,0.00
2013-6-25,85,74,66,72,63,58,76,71,64,29.97,29.81,6,0,11,1.06
2013-6-26,82,74,68,70,64,60,76,70,65,29.82,29.72,4,0,10,0.50
2013-6-27,88,77,69,73,66,58,76,68,60,29.79,29.70,5,1,13,0.21
2013-6-28,78,72,65,66,61,55,72,68,62,29.74,29.62,6,1,16,0.01
2013-6-29,74,67,64,63,57,53,75,70,66,29.84,29.63,2,0,13,0.18
2013-6-30,78,66,58,64,54,47,71,65,46,30.05,29.83,3,0,13,0.02
2013-7-1,79,67,56,61,53,46,71,62,43,30.13,30.05,5,0,11,0.00
2013-7-2,75,64,55,56,50,45,71,61,41,30.14,30.08,5,1,11,0.00
2013-7-3,71,66,60,61,55,50,71,69,66,30.09,30.03,5,0,10,0.03
2013-7-4,86,74,62,65,59,53,75,62,42,30.09,30.02,1,0,8,0.01
2013-7-5,89,78,63,70,63,53,72,62,50,30.08,30.00,1,0,8,0.00
2013-7-6,90,77,63,70,62,54,72,62,47,30.06,29.96,3,0,9,0.00
2013-7-7,89,79,67,75,67,56,74,67,58,29.99,29.92,0,0,6,0.00
2013-7-8,89,78,72,76,65,-100,72,67,64,29.99,29.91,4,0,11,0.04
2013-7-9,85,76,69,73,65,60,74,68,64,30.01,29.82,4,0,14,0.32
2013-7-10,80,74,64,66,59,-100,73,63,52,30.03,29.84,5,1,14,0.01
2013-7-11,82,70,57,64,56,48,75,62,45,30.13,30.02,0,0,6,0.00
2013-7-12,83,68,55,61,54,46,73,62,33,30.17,30.09,0,0,7,0.00
2013-7-13,85,73,59,67,59,48,70,62,48,30.18,30.10,2,0,8,0.00
2013-7-14,88,78,66,72,64,54,70,65,57,30.24,30.16,1,0,7,0.00
2013-7-15,92,79,67,76,67,57,71,66,56,30.29,30.22,5,0,11,0.07
2013-7-16,94,84,72,79,72,63,75,67,60,30.30,30.23,3,0,10,0.07
2013-7-17,96,86,75,79,73,65,73,65,55,30.31,30.17,2,0,10,0.00
2013-7-18,95,88,74,79,74,65,74,63,55,30.17,29.91,3,1,18,0.00
2013-7-19,91,84,74,77,70,63,70,65,55,29.91,29.74,6,2,18,0.00
2013-7-20,89,73,61,68,60,-100,72,64,49,29.98,29.83,3,0,14,0.37
2013-7-21,81,67,59,69,57,49,74,70,65,29.99,29.88,4,1,10,2.44
2013-7-22,87,75,62,73,64,54,76,69,59,29.90,29.63,2,0,10,0.14
2013-7-23,75,69,59,62,57,48,72,66,58,30.00,29.72,3,0,10,0.01
2013-7-24,75,65,52,59,52,44,75,64,50,30.09,30.01,3,0,10,0.01
2013-7-25,81,68,53,67,57,44,74,68,59,30.09,29.97,0,0,7,0.01
2013-7-26,74,68,61,64,58,51,74,70,67,29.98,29.85,4,0,8,0.27
2013-7-27,62,57,52,51,47,43,75,71,65,29.96,29.87,5,1,14,0.01
2013-7-28,68,59,51,57,49,43,74,71,63,30.01,29.84,6,2,18,0.03
2013-7-29,74,64,54,61,54,44,74,70,62,30.19,30.00,3,0,10,0.01
2013-7-30,77,67,57,66,57,48,73,70,67,30.19,30.11,1,0,6,0.00
2013-7-31,82,69,61,70,59,52,75,71,67,30.10,29.96,1,0,7,0.26
2013-8-1,79,70,60,61,57,51,74,63,49,30.00,29.92,6,1,14,0.03
2013-8-2,81,70,61,67,58,51,74,67,51,29.96,29.84,3,0,12,0.09
2013-8-3,79,69,54,61,55,45,73,62,47,30.12,29.96,1,0,12,0.04
2013-8-4,76,66,55,60,54,45,72,66,54,30.23,30.12,1,0,7,0.00
2013-8-5,76,65,57,65,55,47,72,70,67,30.14,29.87,2,0,7,0.01
2013-8-6,85,74,65,73,64,56,74,69,61,29.88,29.80,4,0,9,0.01
2013-8-7,82,75,64,69,64,54,72,68,63,29.98,29.76,4,0,14,0.00
2013-8-8,79,70,62,63,58,53,75,66,55,30.07,29.98,3,0,10,0.00
2013-8-9,81,70,56,68,55,-100,73,66,53,30.07,29.98,5,1,11,0.00
2013-8-10,77,69,54,62,56,46,74,64,54,30.16,30.06,1,0,9,0.00
2013-8-11,75,66,56,65,56,47,75,71,67,30.14,30.04,2,0,8,0.05
2013-8-12,82,73,63,68,62,53,76,68,57,30.03,29.91,3,0,10,0.16
2013-8-13,71,60,50,55,48,-100,74,67,52,30.18,30.00,2,0,10,0.11
2013-8-14,75,63,48,56,48,-100,75,62,50,30.23,30.13,1,0,9,0.00
2013-8-15,79,59,56,62,34,-100,73,59,46,30.16,30.09,2,0,9,0.00
2013-8-16,83,68,54,63,49,-100,75,60,45,30.20,30.13,0,0,7,0.00
2013-8-17,81,69,56,61,53,-100,75,60,47,30.26,30.18,0,0,6,0.00
2013-8-18,82,72,53,63,58,45,75,62,48,30.24,30.10,0,0,6,0.00
2013-8-19,83,66,57,67,46,-100,74,65,53,30.12,30.02,0,0,9,0.00
2013-8-20,89,74,63,71,60,-100,75,66,51,30.09,30.01,2,0,10,0.00
2013-8-21,90,79,69,75,67,58,72,66,57,30.03,29.91,3,0,11,0.00
2013-8-22,82,72,64,72,62,56,74,70,66,30.13,29.99,4,0,9,0.69
2013-8-23,80,69,57,65,58,47,73,68,57,30.20,30.13,0,0,7,0.01
2013-8-24,85,70,56,70,58,-100,73,67,59,30.27,30.17,0,0,6,0.00
2013-8-25,91,78,66,74,66,56,73,66,56,30.20,30.10,3,0,19,0.00
2013-8-26,91,80,71,79,69,60,72,70,65,30.14,29.96,4,0,15,0.00
2013-8-27,94,81,74,79,69,62,71,67,62,29.97,29.81,42,3,11,0.00
2013-8-28,86,81,75,75,71,66,73,71,69,30.04,30.00,0,0,5,0.00
2013-8-29,90,82,64,73,69,56,75,66,57,30.10,29.98,0,0,6,0.00
2013-8-30,92,78,68,80,67,57,72,69,65,29.99,29.78,4,0,13,0.07
2013-8-31,80,70,64,69,58,-100,73,69,67,29.89,29.80,1,0,5,0.07
2013-9-1,85,72,63,73,63,54,75,72,67,29.84,29.72,5,1,11,0.01
2013-9-2,72,65,55,60,55,45,74,70,60,30.01,29.83,3,0,9,0.01
2013-9-3,76,66,48,58,53,40,75,65,49,30.10,30.01,2,0,11,0.00
2013-9-4,83,70,53,67,59,45,75,67,54,30.11,30.05,3,1,11,0.00
2013-9-5,74,65,55,61,54,46,75,68,60,30.29,30.15,4,1,10,0.00
2013-9-6,88,69,50,71,57,41,74,67,55,30.24,29.99,0,0,7,0.00
2013-9-7,89,74,68,75,62,-100,73,68,63,29.98,29.89,3,0,10,0.00
2013-9-8,72,67,63,63,57,53,73,70,68,30.08,29.97,4,1,10,0.00
2013-9-9,93,79,66,79,68,56,73,69,63,29.99,29.78,0,0,11,0.00
2013-9-10,95,84,73,72,68,64,74,61,40,29.95,29.82,6,1,16,0.00
2013-9-11,82,75,66,69,65,57,73,70,62,30.05,29.94,5,1,13,0.09
2013-9-12,76,67,57,63,55,49,75,67,52,30.14,29.98,4,1,15,0.01
2013-9-13,65,54,45,49,43,36,76,67,45,30.24,30.15,1,0,10,0.01
2013-9-14,73,61,40,52,44,-100,75,59,47,30.18,30.00,2,0,9,0.00
2013-9-15,60,56,54,50,47,44,75,71,68,30.24,30.00,0,0,6,0.59
2013-9-16,64,53,41,51,44,33,76,70,54,30.40,30.24,2,0,10,0.01
2013-9-17,71,63,43,57,52,35,76,69,61,30.35,30.11,1,0,7,0.00
2013-9-18,69,61,58,58,51,48,73,71,68,30.10,29.90,1,0,6,0.13
2013-9-19,85,74,67,75,64,58,74,71,66,29.91,29.72,6,0,15,0.91
2013-9-20,73,66,57,65,58,47,76,73,68,29.83,29.73,5,1,18,0.01
2013-9-21,59,53,46,50,43,-100,77,70,67,29.96,29.83,4,1,11,0.01
2013-9-22,64,53,40,49,42,32,76,68,52,30.09,29.96,2,0,6,0.01
2013-9-23,66,54,44,54,45,36,76,71,63,30.13,30.04,4,1,11,0.00
2013-10-2,76,61,45,54,46,37,75,60,32,30.13,29.97,0,0,6,0.00
2013-10-3,76,67,57,67,57,46,74,71,65,30.00,29.84,4,0,8,0.00
2013-10-4,67,64,60,59,56,52,75,74,73,30.00,29.91,3,0,8,0.45
2013-10-5,73,66,60,63,57,52,77,74,69,29.98,29.75,3,0,8,0.65
2013-10-6,61,54,46,52,44,37,78,69,55,29.76,29.67,3,0,10,0.05
2013-10-7,65,52,45,50,42,36,78,70,51,30.08,29.71,5,1,14,0.03
2013-10-8,76,59,40,55,45,32,76,63,43,30.16,30.08,1,0,6,0.01
2013-10-9,75,60,50,55,48,41,76,66,41,30.23,30.13,0,0,6,0.00
2013-10-10,73,59,45,56,47,37,75,67,47,30.17,30.05,2,0,9,0.00
2013-10-11,75,63,54,62,53,44,75,69,59,30.06,29.93,5,0,13,0.00
2013-10-12,70,61,51,59,49,-100,76,67,51,30.15,29.91,6,1,16,0.19
2013-10-13,61,49,39,45,39,30,78,68,46,30.41,30.15,4,0,14,0.19
2013-10-14,60,46,34,49,37,26,76,71,58,30.43,30.15,5,1,12,0.00
2013-10-16,56,51,48,49,43,39,78,73,70,29.93,29.77,6,1,13,0.01
2013-10-17,53,47,41,46,39,32,78,73,71,29.93,29.80,4,0,13,0.08
2013-10-18,50,44,38,43,36,30,78,75,71,29.93,29.79,5,1,18,0.01
2013-10-19,52,42,35,40,31,-100,76,69,59,29.91,29.72,8,0,16,0.02
2013-10-20,49,42,30,42,32,-100,76,72,70,29.85,29.70,2,0,9,0.11
2013-10-21,46,40,32,39,33,26,79,74,65,29.93,29.73,7,2,19,0.01
2013-10-22,47,37,28,34,29,22,79,72,56,29.96,29.89,4,0,10,0.00
2013-10-23,43,36,27,32,27,20,79,69,50,30.00,29.93,5,1,15,0.00
2013-10-24,43,37,28,31,28,21,79,71,55,30.27,30.00,7,1,21,0.00
2013-10-25,51,44,27,34,30,20,77,59,48,30.35,29.90,8,4,20,0.00
2013-10-26,51,46,41,39,31,-100,74,58,50,30.05,29.77,9,4,22,0.90
2013-10-27,54,42,29,35,31,21,77,65,46,30.04,29.89,6,1,18,0.00
2013-10-28,44,39,37,36,31,-100,78,74,70,30.42,30.02,5,1,11,0.00
2013-10-29,54,43,35,44,36,29,78,75,69,30.40,30.15,4,1,11,0.00
2013-10-30,55,50,44,46,42,36,74,72,69,30.14,29.75,3,0,9,0.00
2013-10-31,62,56,45,54,48,36,75,74,71,29.75,29.23,8,2,23,1.11
2013-11-1,46,44,42,38,36,34,74,73,72,29.73,29.31,7,2,19,0.09
2013-11-2,44,40,38,38,31,-100,78,73,72,30.14,29.73,3,0,9,0.03
2013-11-3,51,41,28,40,32,21,78,73,58,30.29,30.14,2,0,8,0.01
2013-11-4,55,49,43,46,41,37,79,74,66,30.22,30.03,4,0,12,0.01
2013-11-5,55,51,48,48,43,39,78,74,71,30.24,29.88,2,0,9,0.22
2013-11-10,47,42,38,35,32,30,74,66,54,30.30,30.05,7,3,21,0.00
2013-11-11,43,33,24,35,25,16,80,73,66,30.52,30.05,4,1,14,0.10
2013-11-12,30,24,18,19,16,13,81,73,54,30.69,30.53,7,2,15,0.01
2013-11-13,40,30,19,23,19,14,81,65,47,30.54,30.06,9,3,19,0.01
2013-11-14,47,38,32,33,28,21,76,66,56,30.05,29.87,6,2,15,0.01
2013-11-15,55,44,36,40,34,30,79,70,57,29.92,29.86,3,0,9,0.01
2013-11-16,59,49,38,50,39,-100,77,71,70,29.88,29.49,6,1,15,0.05
2013-11-17,59,52,40,50,44,34,79,73,70,29.65,29.15,13,3,34,1.14
2013-11-18,40,34,26,34,27,21,80,76,67,30.24,29.65,11,5,27,0.01
2013-11-19,40,30,20,29,23,13,80,74,62,30.36,30.24,2,0,8,0.00
2013-11-20,42,37,32,34,29,25,83,74,62,30.24,30.08,3,0,11,0.03
2013-11-21,44,40,36,38,33,28,79,75,72,30.23,30.10,1,0,8,0.01
2013-11-22,39,31,23,32,24,17,80,76,68,30.46,30.22,5,1,12,0.03
2013-11-23,25,18,12,19,8,-100,79,66,56,30.69,30.39,9,3,19,0.02
2013-11-24,27,18,9,11,8,4,82,64,42,30.68,30.26,6,2,16,0.01
2013-11-25,30,26,22,24,19,11,80,73,59,30.27,29.99,7,4,19,0.01
2013-11-26,32,26,13,27,18,6,80,72,60,30.19,29.99,6,2,21,0.01
2013-12-4,50,42,37,43,35,30,81,76,71,29.75,29.45,9,1,26,0.05
2013-12-5,36,24,15,29,18,10,81,76,68,30.24,29.59,9,5,26,0.01
2013-12-6,17,11,8,10,5,2,81,75,64,30.52,30.23,6,3,13,0.00
2013-12-7,15,7,1,5,-1,-100,82,74,62,30.66,30.52,6,2,12,0.00
2013-12-8,23,16,6,16,10,1,81,77,71,30.58,29.93,5,1,11,0.00
2013-12-9,18,10,-4,12,5,-9,83,78,73,30.15,29.90,9,3,22,0.00
2013-12-10,18,7,-6,12,2,-10,83,78,68,30.23,29.89,11,3,27,0.00
2013-12-17,34,25,14,27,18,8,81,76,69,30.03,29.87,8,4,16,0.04
2013-12-18,32,23,9,25,16,4,82,74,57,30.09,29.74,6,1,14,0.01
2013-12-19,31,27,18,25,21,11,81,77,74,29.96,29.76,3,1,8,0.00
2013-12-20,25,24,23,19,17,16,77,76,74,29.88,29.79,4,1,8,0.00
2013-12-21,28,25,23,21,17,-100,75,73,74,29.87,29.71,3,0,7,0.00
2013-12-22,28,24,20,21,18,14,81,77,74,30.09,29.67,3,1,8,0.00
2013-12-23,20,12,1,14,8,-3,84,80,75,30.39,30.09,5,2,13,0.00
2013-12-24,10,2,-9,5,-2,-12,84,83,78,30.50,30.28,4,0,9,0.00
2013-12-25,23,20,11,18,14,6,83,79,77,30.27,30.04,5,1,12,0.00
2013-12-26,25,20,11,20,15,6,83,81,76,30.22,30.04,5,1,12,0.00
2013-12-27,36,26,9,30,20,4,82,79,74,30.23,29.98,7,1,13,0.01
2013-12-28,42,35,25,35,28,-100,81,76,73,30.02,29.75,6,1,13,0.45
2013-12-29,39,22,-1,32,15,-8,82,77,72,30.20,29.71,6,2,13,0.09